Tiempo cada hora Murzynowko

Hoy, 22 Octubre, Jueves

Tiempo Temperatura Precipitaciones Viento Presión Humedad
00:00 +10°C° 0 mm 5 mps 752 mmHg 67%
01:00 +10°C° 0 mm 5 mps 752 mmHg 66%
02:00 +12°C° 0 mm 5 mps 752 mmHg 66%
03:00 +12°C° 0 mm 5 mps 752 mmHg 66%
04:00 +11°C° 0 mm 6 mps 752 mmHg 65%
05:00 +11°C° 0 mm 6 mps 752 mmHg 66%
06:00 +11°C° 0 mm 6 mps 753 mmHg 67%
07:00 +11°C° 0 mm 6 mps 753 mmHg 67%
08:00 +14°C° 0 mm 6 mps 754 mmHg 66%
09:00 +15°C° 0 mm 6 mps 754 mmHg 65%
10:00 +17°C° 0 mm 6 mps 754 mmHg 63%
11:00 +17°C° 0 mm 6 mps 754 mmHg 62%
12:00 +19°C° 0 mm 6 mps 754 mmHg 62%
13:00 +20°C° 0 mm 5 mps 754 mmHg 61%
14:00 +19°C° 0 mm 5 mps 754 mmHg 64%
15:00 +18°C° 0 mm 4 mps 754 mmHg 68%
16:00 +17°C° 0 mm 3 mps 754 mmHg 72%
17:00 +17°C° 0 mm 3 mps 754 mmHg 74%
18:00 +16°C° 0 mm 3 mps 754 mmHg 76%
19:00 +14°C° 0 mm 4 mps 755 mmHg 78%
20:00 +14°C° 0 mm 4 mps 754 mmHg 79%
21:00 +14°C° 0 mm 3 mps 754 mmHg 80%
22:00 +13°C° 0 mm 3 mps 754 mmHg 80%
23:00 +13°C° 0 mm 4 mps 754 mmHg 79%

Mañana, 23 Octubre, Viernes

Tiempo Temperatura Precipitaciones Viento Presión Humedad
00:00 +13°C° 0 mm 4 mps 754 mmHg 79%
01:00 +14°C° 0 mm 4 mps 754 mmHg 78%
02:00 +14°C° 0 mm 4 mps 754 mmHg 78%
03:00 +14°C° 0 mm 4 mps 753 mmHg 79%
04:00 +14°C° 0 mm 5 mps 753 mmHg 79%
05:00 +14°C° 0 mm 4 mps 753 mmHg 81%
06:00 +13°C° 0 mm 4 mps 753 mmHg 82%
07:00 +13°C° 0 mm 4 mps 753 mmHg 84%
08:00 +14°C° 0 mm 4 mps 753 mmHg 82%
09:00 +15°C° 0 mm 4 mps 753 mmHg 79%
10:00 +17°C° 0 mm 4 mps 753 mmHg 76%
11:00 +17°C° 0 mm 4 mps 753 mmHg 74%
12:00 +18°C° 0 mm 4 mps 753 mmHg 73%
13:00 +19°C° 0 mm 3 mps 752 mmHg 71%
14:00 +18°C° 0 mm 3 mps 752 mmHg 75%
15:00 +17°C° 0 mm 2 mps 752 mmHg 79%
16:00 +16°C° 0 mm 2 mps 752 mmHg 83%
17:00 +16°C° 0.4 mm 2 mps 752 mmHg 86%
18:00 +15°C° 0.4 mm 2 mps 752 mmHg 89%
19:00 +15°C° 0.4 mm 2 mps 752 mmHg 93%
20:00 +15°C° 1.5 mm 2 mps 752 mmHg 94%
21:00 +14°C° 1.5 mm 2 mps 752 mmHg 95%
22:00 +14°C° 1.5 mm 1 mps 752 mmHg 96%
23:00 +14°C° 1.4 mm 2 mps 752 mmHg 97%

Pasado mañana, 24 Octubre, Sábado

Tiempo Temperatura Precipitaciones Viento Presión Humedad
00:00 +14°C° 1.4 mm 2 mps 752 mmHg 97%
01:00 +14°C° 1.4 mm 2 mps 752 mmHg 97%
02:00 +14°C° 0.6 mm 2 mps 751 mmHg 97%
03:00 +14°C° 0.6 mm 2 mps 751 mmHg 96%
04:00 +13°C° 0.6 mm 3 mps 751 mmHg 96%
05:00 +13°C° 0.2 mm 3 mps 751 mmHg 95%
06:00 +13°C° 0.2 mm 3 mps 752 mmHg 94%
07:00 +13°C° 0.2 mm 3 mps 752 mmHg 93%
08:00 +14°C° 0 mm 4 mps 752 mmHg 88%
09:00 +14°C° 0 mm 5 mps 753 mmHg 83%
10:00 +15°C° 0 mm 5 mps 753 mmHg 78%
11:00 +15°C° 0 mm 6 mps 754 mmHg 76%
12:00 +15°C° 0 mm 6 mps 754 mmHg 73%
13:00 +16°C° 0 mm 6 mps 754 mmHg 70%
14:00 +15°C° 0 mm 5 mps 754 mmHg 71%
15:00 +14°C° 0 mm 4 mps 755 mmHg 72%
16:00 +13°C° 0 mm 3 mps 755 mmHg 73%
17:00 +13°C° 0 mm 3 mps 755 mmHg 77%
18:00 +13°C° 0 mm 2 mps 755 mmHg 81%
19:00 +12°C° 0 mm 2 mps 756 mmHg 85%
20:00 +12°C° 0 mm 2 mps 756 mmHg 85%
21:00 +12°C° 0 mm 2 mps 756 mmHg 85%
22:00 +11°C° 0 mm 3 mps 756 mmHg 85%
23:00 +11°C° 0 mm 3 mps 756 mmHg 86%

, 25 Octubre, Domingo

Tiempo Temperatura Precipitaciones Viento Presión Humedad
00:00 +12°C° 0 mm 2 mps 756 mmHg 86%
01:00 +12°C° 0 mm 2 mps 756 mmHg 87%
02:00 +12°C° 0 mm 2 mps 756 mmHg 87%
03:00 +12°C° 0 mm 2 mps 756 mmHg 87%
04:00 +10°C° 0 mm 2 mps 756 mmHg 88%
05:00 +10°C° 0 mm 2 mps 756 mmHg 88%
06:00 +10°C° 0 mm 3 mps 756 mmHg 89%
07:00 +9°C° 0 mm 3 mps 756 mmHg 89%
08:00 +11°C° 0 mm 3 mps 756 mmHg 83%
09:00 +13°C° 0 mm 4 mps 756 mmHg 78%
10:00 +14°C° 0 mm 4 mps 756 mmHg 72%
11:00 +15°C° 0 mm 4 mps 756 mmHg 68%
12:00 +17°C° 0 mm 4 mps 755 mmHg 65%
13:00 +18°C° 0 mm 4 mps 755 mmHg 61%
14:00 +17°C° 0 mm 4 mps 755 mmHg 65%
15:00 +16°C° 0 mm 3 mps 754 mmHg 68%
16:00 +16°C° 0 mm 3 mps 754 mmHg 72%
17:00 +14°C° 0 mm 3 mps 754 mmHg 75%
18:00 +13°C° 0 mm 3 mps 754 mmHg 79%
19:00 +12°C° 0 mm 4 mps 754 mmHg 82%
20:00 +12°C° 0 mm 4 mps 754 mmHg 82%
21:00 +11°C° 0 mm 4 mps 754 mmHg 83%
22:00 +11°C° 0 mm 4 mps 754 mmHg 83%
23:00 +11°C° 0 mm 4 mps 753 mmHg 85%

25 Octubre, Domingo

Tiempo Temperatura Precipitaciones Viento Presión Humedad
00:00 +12°C° 0 mm 2 mps 756 mmHg 86%
01:00 +12°C° 0 mm 2 mps 756 mmHg 87%
02:00 +12°C° 0 mm 2 mps 756 mmHg 87%
03:00 +12°C° 0 mm 2 mps 756 mmHg 87%
04:00 +10°C° 0 mm 2 mps 756 mmHg 88%
05:00 +10°C° 0 mm 2 mps 756 mmHg 88%
06:00 +10°C° 0 mm 3 mps 756 mmHg 89%
07:00 +9°C° 0 mm 3 mps 756 mmHg 89%
08:00 +11°C° 0 mm 3 mps 756 mmHg 83%
09:00 +13°C° 0 mm 4 mps 756 mmHg 78%
10:00 +14°C° 0 mm 4 mps 756 mmHg 72%
11:00 +15°C° 0 mm 4 mps 756 mmHg 68%
12:00 +17°C° 0 mm 4 mps 755 mmHg 65%
13:00 +18°C° 0 mm 4 mps 755 mmHg 61%
14:00 +17°C° 0 mm 4 mps 755 mmHg 65%
15:00 +16°C° 0 mm 3 mps 754 mmHg 68%
16:00 +16°C° 0 mm 3 mps 754 mmHg 72%
17:00 +14°C° 0 mm 3 mps 754 mmHg 75%
18:00 +13°C° 0 mm 3 mps 754 mmHg 79%
19:00 +12°C° 0 mm 4 mps 754 mmHg 82%
20:00 +12°C° 0 mm 4 mps 754 mmHg 82%
21:00 +11°C° 0 mm 4 mps 754 mmHg 83%
22:00 +11°C° 0 mm 4 mps 754 mmHg 83%
23:00 +11°C° 0 mm 4 mps 753 mmHg 85%

26 Octubre, Lunes

Tiempo Temperatura Precipitaciones Viento Presión Humedad
00:00 +10°C° 0 mm 4 mps 753 mmHg 87%
01:00 +10°C° 0 mm 4 mps 753 mmHg 88%
02:00 +10°C° 0 mm 4 mps 752 mmHg 89%
03:00 +8°C° 0 mm 4 mps 752 mmHg 89%
04:00 +9°C° 0 mm 3 mps 752 mmHg 90%
05:00 +8°C° 0 mm 4 mps 752 mmHg 90%
06:00 +8°C° 0 mm 4 mps 751 mmHg 90%
07:00 +8°C° 0 mm 4 mps 751 mmHg 91%
08:00 +10°C° 0 mm 4 mps 751 mmHg 84%
09:00 +12°C° 0 mm 4 mps 751 mmHg 78%
10:00 +13°C° 0 mm 4 mps 750 mmHg 71%
11:00 +14°C° 0 mm 4 mps 750 mmHg 69%
12:00 +15°C° 0 mm 4 mps 750 mmHg 66%
13:00 +17°C° 0 mm 4 mps 749 mmHg 64%
14:00 +15°C° 0 mm 4 mps 749 mmHg 67%
15:00 +16°C° 0 mm 3 mps 748 mmHg 70%
16:00 +14°C° 0 mm 3 mps 748 mmHg 73%
17:00 +14°C° 0 mm 3 mps 748 mmHg 74%
18:00 +13°C° 0 mm 3 mps 748 mmHg 75%
19:00 +13°C° 0 mm 3 mps 748 mmHg 76%
20:00 +13°C° 0 mm 3 mps 748 mmHg 78%
21:00 +12°C° 0 mm 3 mps 748 mmHg 80%
22:00 +12°C° 0 mm 4 mps 748 mmHg 82%
23:00 +12°C° 0 mm 3 mps 748 mmHg 82%

27 Octubre, Martes

Tiempo Temperatura Precipitaciones Viento Presión Humedad
00:00 +12°C° 0 mm 3 mps 748 mmHg 81%
01:00 +12°C° 0 mm 3 mps 748 mmHg 81%
02:00 +11°C° 0 mm 3 mps 748 mmHg 84%
03:00 +11°C° 0 mm 3 mps 748 mmHg 86%
04:00 +11°C° 0 mm 3 mps 748 mmHg 89%
05:00 +11°C° 0 mm 3 mps 748 mmHg 90%
06:00 +10°C° 0 mm 3 mps 749 mmHg 92%
07:00 +10°C° 0 mm 3 mps 749 mmHg 94%
08:00 +11°C° 0 mm 3 mps 749 mmHg 88%
09:00 +12°C° 0 mm 3 mps 749 mmHg 83%
10:00 +13°C° 0 mm 3 mps 750 mmHg 77%
11:00 +14°C° 0 mm 3 mps 750 mmHg 74%
12:00 +16°C° 0 mm 3 mps 750 mmHg 71%
13:00 +16°C° 0 mm 3 mps 751 mmHg 67%
14:00 +16°C° 0 mm 3 mps 751 mmHg 70%
15:00 +15°C° 0 mm 2 mps 751 mmHg 73%
16:00 +15°C° 0 mm 1 mps 751 mmHg 76%
17:00 +14°C° 0 mm 1 mps 751 mmHg 78%
18:00 +14°C° 0 mm 1 mps 752 mmHg 80%
19:00 +12°C° 0 mm 0 mps 752 mmHg 82%
20:00 +12°C° 0 mm 0 mps 752 mmHg 82%
21:00 +13°C° 0 mm 1 mps 753 mmHg 81%
22:00 +13°C° 0 mm 1 mps 753 mmHg 81%
23:00 +13°C° 0 mm 1 mps 753 mmHg 82%
Mostrar más

Necesitamos Su Consentimiento

Meteoprog y nuestros Proveedores de Servicios pueden almacenar y acceder a sus datos personales como cookies, identificadores de dispositivo u otras tecnologías similares de su dispositivo y procesar dichos datos para personalizar contenido y anuncios, además de ofrecer funciones de redes sociales y analizar el tráfico.

  • Almacenar y/o acceder a información en su dispositivo

    Se puede almacenar o acceder a cookies, identificadores de dispositivo u otra información de su dispositivo para los fines anteriormente indicados.

  • Anuncios y contenido personalizados, medición de anuncios y contenido, percepciones del público, y desarrollo de productos

    Los anuncios y el contenido pueden personalizarse en base a su perfil. Se pueden añadir más datos para personalizar mejor los anuncios y contenidos. Se puede medir el rendimiento de los anuncios y contenidos. Se puede obtener la percepción sobre el público que ha visto los anuncios y contenidos. Dichos datos pueden usarse para desarrollar o mejorar la experiencia del usuario, sistemas y software.

Al hacer clic en ‘Estoy De Acuerdo’ usted permitirá el uso de las cookies, identificadores de dispositivo, balizas web u otras tecnologías similares indicadas. Su configuración puede cambiarse desde el navegador de su dispositivo.

Para ciertos fines, los intereses legítimos pueden ser considerados por encima del consentimiento. Puede leer más sobre ello en nuestra Política de Privacidad y Cookies.